Year,Month,Day,Hour,Minute,Value (Times are PST for barometer in hPa)
2015,12,08,00,00,1006.16
2015,12,08,00,01,1006.13
2015,12,08,00,02,1006.14
2015,12,08,00,03,1006.20
2015,12,08,00,04,1006.23
2015,12,08,00,05,1006.23
2015,12,08,00,06,1006.28
2015,12,08,00,07,1006.33
2015,12,08,00,08,1006.33
2015,12,08,00,09,1006.37
2015,12,08,00,10,1006.33
2015,12,08,00,11,1006.30
2015,12,08,00,12,1006.27
2015,12,08,00,13,1006.23
2015,12,08,00,14,1006.30
2015,12,08,00,15,1006.23
2015,12,08,00,16,1006.22
2015,12,08,00,17,1006.12
2015,12,08,00,18,1006.02
2015,12,08,00,19,1005.89
2015,12,08,00,20,1005.83
2015,12,08,00,21,1005.85
2015,12,08,00,22,1005.78
2015,12,08,00,23,1005.72
2015,12,08,00,24,1005.69
2015,12,08,00,25,1005.66
2015,12,08,00,26,1005.62
2015,12,08,00,27,1005.59
2015,12,08,00,28,1005.58
2015,12,08,00,29,1005.45
2015,12,08,00,30,1005.42
2015,12,08,00,31,1005.35
2015,12,08,00,32,1005.35
2015,12,08,00,33,1005.34
2015,12,08,00,34,1005.25
2015,12,08,00,35,1005.28
2015,12,08,00,36,1005.35
2015,12,08,00,37,1005.32
2015,12,08,00,38,1005.32
2015,12,08,00,39,1005.32
2015,12,08,00,40,1005.35
2015,12,08,00,41,1005.32
2015,12,08,00,42,1005.30
2015,12,08,00,43,1005.15
2015,12,08,00,44,1005.13
2015,12,08,00,45,1004.95
2015,12,08,00,46,1004.89
2015,12,08,00,47,1004.95
2015,12,08,00,48,1004.98
2015,12,08,00,49,1004.95
2015,12,08,00,50,1004.91
2015,12,08,00,51,1004.91
2015,12,08,00,52,1004.91
2015,12,08,00,53,1004.84
2015,12,08,00,54,1004.87
2015,12,08,00,55,1004.74
2015,12,08,00,56,1004.70
2015,12,08,00,57,1004.63
2015,12,08,00,58,1004.58
2015,12,08,00,59,1004.63
2015,12,08,01,00,1004.57
2015,12,08,01,01,1004.62
2015,12,08,01,02,1004.40
2015,12,08,01,03,1004.37
2015,12,08,01,04,1004.37
2015,12,08,01,05,1004.37
2015,12,08,01,06,1004.35
2015,12,08,01,07,1004.39
2015,12,08,01,08,1004.30
2015,12,08,01,09,1004.30
2015,12,08,01,10,1004.27
2015,12,08,01,11,1004.30
2015,12,08,01,12,1004.27
2015,12,08,01,13,1004.27
2015,12,08,01,14,1004.23
2015,12,08,01,15,1004.21
2015,12,08,01,16,1004.27
2015,12,08,01,17,1004.22
2015,12,08,01,18,1004.17
2015,12,08,01,19,1004.20
2015,12,08,01,20,1004.20
2015,12,08,01,21,1004.20
2015,12,08,01,22,1004.20
2015,12,08,01,23,1004.22
2015,12,08,01,24,1004.10
2015,12,08,01,25,1004.06
2015,12,08,01,26,1004.05
2015,12,08,01,27,1004.01
2015,12,08,01,28,1004.13
2015,12,08,01,29,1004.13
2015,12,08,01,30,1004.16
2015,12,08,01,31,1004.06
2015,12,08,01,32,1004.02
2015,12,08,01,33,1003.92
2015,12,08,01,34,1003.83
2015,12,08,01,35,1003.90
2015,12,08,01,36,1003.83
2015,12,08,01,37,1003.83
2015,12,08,01,38,1003.78
2015,12,08,01,39,1003.66
2015,12,08,01,40,1003.56
2015,12,08,01,41,1003.56
2015,12,08,01,42,1003.62
2015,12,08,01,43,1003.62
2015,12,08,01,44,1003.58
2015,12,08,01,45,1003.49
2015,12,08,01,46,1003.56
2015,12,08,01,47,1003.55
2015,12,08,01,48,1003.49
2015,12,08,01,49,1003.51
2015,12,08,01,50,1003.46
2015,12,08,01,51,1003.42
2015,12,08,01,52,1003.42
2015,12,08,01,53,1003.42
2015,12,08,01,54,1003.49
2015,12,08,01,55,1003.46
2015,12,08,01,56,1003.49
2015,12,08,01,57,1003.49
2015,12,08,01,58,1003.52
2015,12,08,01,59,1003.49
2015,12,08,02,00,1003.46
2015,12,08,02,01,1003.52
2015,12,08,02,02,1003.46
2015,12,08,02,03,1003.39
2015,12,08,02,04,1003.38
2015,12,08,02,05,1003.32
2015,12,08,02,06,1003.29
2015,12,08,02,07,1003.25
2015,12,08,02,08,1003.32
2015,12,08,02,09,1003.25
2015,12,08,02,10,1003.29
2015,12,08,02,11,1003.25
2015,12,08,02,12,1003.29
2015,12,08,02,13,1003.25
2015,12,08,02,14,1003.22
2015,12,08,02,15,1003.25
2015,12,08,02,16,1003.25
2015,12,08,02,17,1003.22
2015,12,08,02,18,1003.22
2015,12,08,02,19,1003.18
2015,12,08,02,20,1003.15
2015,12,08,02,21,1003.12
2015,12,08,02,22,1003.12
2015,12,08,02,23,1003.07
2015,12,08,02,24,1002.95
2015,12,08,02,25,1002.87
2015,12,08,02,26,1002.71
2015,12,08,02,27,1002.70
2015,12,08,02,28,1002.57
2015,12,08,02,29,1002.47
2015,12,08,02,30,1002.41
2015,12,08,02,31,1002.47
2015,12,08,02,32,1002.44
2015,12,08,02,33,1002.41
2015,12,08,02,34,1002.34
2015,12,08,02,35,1002.27
2015,12,08,02,36,1002.30
2015,12,08,02,37,1002.23
2015,12,08,02,38,1002.10
2015,12,08,02,39,1002.10
2015,12,08,02,40,1002.13
2015,12,08,02,41,1002.20
2015,12,08,02,42,1002.20
2015,12,08,02,43,1002.17
2015,12,08,02,44,1002.17
2015,12,08,02,45,1002.20
2015,12,08,02,46,1002.17
2015,12,08,02,47,1002.10
2015,12,08,02,48,1002.20
2015,12,08,02,49,1002.17
2015,12,08,02,50,1002.17
2015,12,08,02,51,1002.17
2015,12,08,02,52,1002.10
2015,12,08,02,53,1002.07
2015,12,08,02,54,1002.02
2015,12,08,02,55,1001.82
2015,12,08,02,56,1001.67
2015,12,08,02,57,1001.83
2015,12,08,02,58,1001.66
2015,12,08,02,59,1001.66
2015,12,08,03,00,1001.59
2015,12,08,03,01,1001.69
2015,12,08,03,02,1001.73
2015,12,08,03,03,1001.75
2015,12,08,03,04,1001.63
2015,12,08,03,05,1001.64
2015,12,08,03,06,1001.69
2015,12,08,03,07,1001.69
2015,12,08,03,08,1001.69
2015,12,08,03,09,1001.63
2015,12,08,03,10,1001.58
2015,12,08,03,11,1001.48
2015,12,08,03,12,1001.42
2015,12,08,03,13,1001.46
2015,12,08,03,14,1001.46
2015,12,08,03,15,1001.42
2015,12,08,03,16,1001.37
2015,12,08,03,17,1001.22
2015,12,08,03,18,1001.19
2015,12,08,03,19,1001.15
2015,12,08,03,20,1001.11
2015,12,08,03,21,1001.02
2015,12,08,03,22,1000.97
2015,12,08,03,23,1000.92
2015,12,08,03,24,1000.91
2015,12,08,03,25,1000.80
2015,12,08,03,26,1000.75
2015,12,08,03,27,1000.75
2015,12,08,03,28,1000.77
2015,12,08,03,29,1000.63
2015,12,08,03,30,1000.58
2015,12,08,03,31,1000.58
2015,12,08,03,32,1000.54
2015,12,08,03,33,1000.57
2015,12,08,03,34,1000.51
2015,12,08,03,35,1000.51
2015,12,08,03,36,1000.45
2015,12,08,03,37,1000.50
2015,12,08,03,38,1000.44
2015,12,08,03,39,1000.43
2015,12,08,03,40,1000.37
2015,12,08,03,41,1000.40
2015,12,08,03,42,1000.33
2015,12,08,03,43,1000.23
2015,12,08,03,44,1000.17
2015,12,08,03,45,1000.16
2015,12,08,03,46,1000.10
2015,12,08,03,47,1000.10
2015,12,08,03,48,1000.03
2015,12,08,03,49,1000.07
2015,12,08,03,50,1000.03
2015,12,08,03,51,1000.03
2015,12,08,03,52,1000.03
2015,12,08,03,53,1000.00
2015,12,08,03,54,1000.03
2015,12,08,03,55,1000.07
2015,12,08,03,56,1000.03
2015,12,08,03,57,1000.07
2015,12,08,03,58,1000.03
2015,12,08,03,59,1000.00
2015,12,08,04,00,1000.00
2015,12,08,04,01,999.96
2015,12,08,04,02,999.86
2015,12,08,04,03,999.80
2015,12,08,04,04,999.79
2015,12,08,04,05,999.73
2015,12,08,04,06,999.74
2015,12,08,04,07,999.80
2015,12,08,04,08,999.75
2015,12,08,04,09,999.63
2015,12,08,04,10,999.58
2015,12,08,04,11,999.49
2015,12,08,04,12,999.48
2015,12,08,04,13,999.38
2015,12,08,04,14,999.25
2015,12,08,04,15,999.18
2015,12,08,04,16,999.12
2015,12,08,04,17,999.12
2015,12,08,04,18,999.09
2015,12,08,04,19,999.05
2015,12,08,04,20,999.05
2015,12,08,04,21,999.02
2015,12,08,04,22,999.05
2015,12,08,04,23,999.02
2015,12,08,04,24,999.05
2015,12,08,04,25,999.05
2015,12,08,04,26,999.09
2015,12,08,04,27,999.12
2015,12,08,04,28,999.09
2015,12,08,04,29,999.09
2015,12,08,04,30,999.12
2015,12,08,04,31,999.11
2015,12,08,04,32,999.02
2015,12,08,04,33,998.98
2015,12,08,04,34,998.87
2015,12,08,04,35,998.81
2015,12,08,04,36,998.75
2015,12,08,04,37,998.75
2015,12,08,04,38,998.71
2015,12,08,04,39,998.67
2015,12,08,04,40,998.61
2015,12,08,04,41,998.61
2015,12,08,04,42,998.61
2015,12,08,04,43,998.64
2015,12,08,04,44,998.58
2015,12,08,04,45,998.61
2015,12,08,04,46,998.65
2015,12,08,04,47,998.61
2015,12,08,04,48,998.57
2015,12,08,04,49,998.42
2015,12,08,04,50,998.27
2015,12,08,04,51,998.31
2015,12,08,04,52,998.31
2015,12,08,04,53,998.30
2015,12,08,04,54,998.20
2015,12,08,04,55,998.13
2015,12,08,04,56,998.03
2015,12,08,04,57,997.94
2015,12,08,04,58,997.94
2015,12,08,04,59,997.94
2015,12,08,05,00,997.93
2015,12,08,05,01,997.83
2015,12,08,05,02,997.86
2015,12,08,05,03,997.76
2015,12,08,05,04,997.70
2015,12,08,05,05,997.62
2015,12,08,05,06,997.56
2015,12,08,05,07,997.53
2015,12,08,05,08,997.53
2015,12,08,05,09,997.52
2015,12,08,05,10,997.43
2015,12,08,05,11,997.37
2015,12,08,05,12,997.43
2015,12,08,05,13,997.39
2015,12,08,05,14,997.39
2015,12,08,05,15,997.39
2015,12,08,05,16,997.36
2015,12,08,05,17,997.29
2015,12,08,05,18,997.25
2015,12,08,05,19,997.13
2015,12,08,05,20,997.18
2015,12,08,05,21,997.09
2015,12,08,05,22,997.02
2015,12,08,05,23,997.02
2015,12,08,05,24,997.03
2015,12,08,05,25,997.08
2015,12,08,05,26,996.98
2015,12,08,05,27,996.89
2015,12,08,05,28,996.92
2015,12,08,05,29,996.95
2015,12,08,05,30,996.92
2015,12,08,05,31,996.95
2015,12,08,05,32,996.91
2015,12,08,05,33,996.85
2015,12,08,05,34,996.85
2015,12,08,05,35,996.79
2015,12,08,05,36,996.84
2015,12,08,05,37,996.74
2015,12,08,05,38,996.65
2015,12,08,05,39,996.62
2015,12,08,05,40,996.68
2015,12,08,05,41,996.65
2015,12,08,05,42,996.56
2015,12,08,05,43,996.41
2015,12,08,05,44,996.37
2015,12,08,05,45,996.27
2015,12,08,05,46,996.17
2015,12,08,05,47,996.10
2015,12,08,05,48,996.04
2015,12,08,05,49,996.03
2015,12,08,05,50,995.94
2015,12,08,05,51,995.96
2015,12,08,05,52,995.90
2015,12,08,05,53,995.86
2015,12,08,05,54,995.80
2015,12,08,05,55,995.77
2015,12,08,05,56,995.80
2015,12,08,05,57,995.83
2015,12,08,05,58,995.77
2015,12,08,05,59,995.77
2015,12,08,06,00,995.77
2015,12,08,06,01,995.71
2015,12,08,06,02,995.56
2015,12,08,06,03,995.53
2015,12,08,06,04,995.53
2015,12,08,06,05,995.45
2015,12,08,06,06,995.40
2015,12,08,06,07,995.43
2015,12,08,06,08,995.47
2015,12,08,06,09,995.53
2015,12,08,06,10,995.50
2015,12,08,06,11,995.46
2015,12,08,06,12,995.50
2015,12,08,06,13,995.46
2015,12,08,06,14,995.50
2015,12,08,06,15,995.53
2015,12,08,06,16,995.53
2015,12,08,06,17,995.56
2015,12,08,06,18,995.60
2015,12,08,06,19,995.58
2015,12,08,06,20,995.39
2015,12,08,06,21,995.29
2015,12,08,06,22,995.29
2015,12,08,06,23,995.40
2015,12,08,06,24,995.33
2015,12,08,06,25,995.39
2015,12,08,06,26,995.29
2015,12,08,06,27,995.32
2015,12,08,06,28,995.18
2015,12,08,06,29,995.08
2015,12,08,06,30,994.99
2015,12,08,06,31,994.99
2015,12,08,06,32,994.96
2015,12,08,06,33,994.96
2015,12,08,06,34,994.99
2015,12,08,06,35,995.02
2015,12,08,06,36,995.02
2015,12,08,06,37,995.01
2015,12,08,06,38,994.91
2015,12,08,06,39,994.81
2015,12,08,06,40,994.67
2015,12,08,06,41,994.54
2015,12,08,06,42,994.40
2015,12,08,06,43,994.35
2015,12,08,06,44,994.30
2015,12,08,06,45,994.19
2015,12,08,06,46,994.04
2015,12,08,06,47,994.04
2015,12,08,06,48,994.04
2015,12,08,06,49,994.09
2015,12,08,06,50,994.38
2015,12,08,06,51,994.37
2015,12,08,06,52,994.56
2015,12,08,06,53,994.68
2015,12,08,06,54,994.72
2015,12,08,06,55,994.72
2015,12,08,06,56,994.67
2015,12,08,06,57,994.56
2015,12,08,06,58,994.39
2015,12,08,06,59,994.23
2015,12,08,07,00,994.12
2015,12,08,07,01,993.84
2015,12,08,07,02,993.79
2015,12,08,07,03,993.74
2015,12,08,07,04,993.75
2015,12,08,07,05,993.80
2015,12,08,07,06,993.84
2015,12,08,07,07,993.85
2015,12,08,07,08,993.90
2015,12,08,07,09,993.84
2015,12,08,07,10,993.93
2015,12,08,07,11,994.06
2015,12,08,07,12,993.91
2015,12,08,07,13,993.87
2015,12,08,07,14,993.83
2015,12,08,07,15,993.76
2015,12,08,07,16,993.67
2015,12,08,07,17,993.67
2015,12,08,07,18,993.68
2015,12,08,07,19,993.80
2015,12,08,07,20,993.83
2015,12,08,07,21,993.70
2015,12,08,07,22,993.68
2015,12,08,07,23,993.74
2015,12,08,07,24,993.70
2015,12,08,07,25,993.70
2015,12,08,07,26,993.71
2015,12,08,07,27,993.77
2015,12,08,07,28,993.78
2015,12,08,07,29,993.83
2015,12,08,07,30,993.76
2015,12,08,07,31,993.68
2015,12,08,07,32,993.79
2015,12,08,07,33,993.70
2015,12,08,07,34,993.70
2015,12,08,07,35,993.70
2015,12,08,07,36,993.70
2015,12,08,07,37,993.73
2015,12,08,07,38,993.63
2015,12,08,07,39,993.59
2015,12,08,07,40,993.46
2015,12,08,07,41,993.30
2015,12,08,07,42,993.30
2015,12,08,07,43,993.30
2015,12,08,07,44,993.26
2015,12,08,07,45,993.27
2015,12,08,07,46,993.33
2015,12,08,07,47,993.26
2015,12,08,07,48,993.25
2015,12,08,07,49,993.16
2015,12,08,07,50,993.18
2015,12,08,07,51,993.07
2015,12,08,07,52,993.16
2015,12,08,07,53,993.17
2015,12,08,07,54,993.35
2015,12,08,07,55,993.30
2015,12,08,07,56,993.31
2015,12,08,07,57,993.13
2015,12,08,07,58,993.16
2015,12,08,07,59,993.16
2015,12,08,08,00,993.16
2015,12,08,08,01,993.12
2015,12,08,08,02,993.06
2015,12,08,08,03,992.99
2015,12,08,08,04,993.02
2015,12,08,08,05,992.90
2015,12,08,08,06,993.04
2015,12,08,08,07,993.18
2015,12,08,08,08,993.36
2015,12,08,08,09,993.36
2015,12,08,08,10,993.40
2015,12,08,08,11,993.43
2015,12,08,08,12,993.43
2015,12,08,08,13,993.47
2015,12,08,08,14,993.50
2015,12,08,08,15,993.53
2015,12,08,08,16,993.57
2015,12,08,08,17,993.60
2015,12,08,08,18,993.63
2015,12,08,08,19,993.63
2015,12,08,08,20,993.63
2015,12,08,08,21,993.66
2015,12,08,08,22,993.52
2015,12,08,08,23,993.47
2015,12,08,08,24,993.39
2015,12,08,08,25,993.30
2015,12,08,08,26,993.32
2015,12,08,08,27,993.19
2015,12,08,08,28,993.18
2015,12,08,08,29,993.12
2015,12,08,08,30,993.06
2015,12,08,08,31,993.07
2015,12,08,08,32,993.11
2015,12,08,08,33,992.95
2015,12,08,08,34,992.88
2015,12,08,08,35,993.03
2015,12,08,08,36,992.96
2015,12,08,08,37,993.03
2015,12,08,08,38,993.01
2015,12,08,08,39,993.16
2015,12,08,08,40,993.26
2015,12,08,08,41,993.23
2015,12,08,08,42,993.26
2015,12,08,08,43,993.27
2015,12,08,08,44,993.36
2015,12,08,08,45,993.33
2015,12,08,08,46,993.24
2015,12,08,08,47,993.36
2015,12,08,08,48,993.36
2015,12,08,08,49,993.30
2015,12,08,08,50,993.40
2015,12,08,08,51,993.43
2015,12,08,08,52,993.41
2015,12,08,08,53,993.50
2015,12,08,08,54,993.50
2015,12,08,08,55,993.48
2015,12,08,08,56,993.60
2015,12,08,08,57,993.63
2015,12,08,08,58,993.57
2015,12,08,08,59,993.62
2015,12,08,09,00,993.77
2015,12,08,09,01,993.69
2015,12,08,09,02,993.57
2015,12,08,09,03,993.50
2015,12,08,09,04,993.52
2015,12,08,09,05,993.73
2015,12,08,09,06,993.65
2015,12,08,09,07,993.50
2015,12,08,09,08,993.53
2015,12,08,09,09,993.61
2015,12,08,09,10,993.81
2015,12,08,09,11,993.91
2015,12,08,09,12,993.94
2015,12,08,09,13,993.92
2015,12,08,09,14,994.08
2015,12,08,09,15,994.18
2015,12,08,09,16,994.18
2015,12,08,09,17,994.29
2015,12,08,09,18,994.42
2015,12,08,09,19,994.52
2015,12,08,09,20,994.48
2015,12,08,09,21,994.52
2015,12,08,09,22,994.55
2015,12,08,09,23,994.52
2015,12,08,09,24,994.55
2015,12,08,09,25,994.52
2015,12,08,09,26,994.52
2015,12,08,09,27,994.52
2015,12,08,09,28,994.58
2015,12,08,09,29,994.52
2015,12,08,09,30,994.48
2015,12,08,09,31,994.48
2015,12,08,09,32,994.55
2015,12,08,09,33,994.52
2015,12,08,09,34,994.56
2015,12,08,09,35,994.61
2015,12,08,09,36,994.53
2015,12,08,09,37,994.63
2015,12,08,09,38,994.76
2015,12,08,09,39,994.90
2015,12,08,09,40,994.98
2015,12,08,09,41,994.92
2015,12,08,09,42,994.91
2015,12,08,09,43,994.86
2015,12,08,09,44,995.03
2015,12,08,09,45,995.20
2015,12,08,09,46,995.26
2015,12,08,09,47,995.33
2015,12,08,09,48,995.33
2015,12,08,09,49,995.29
2015,12,08,09,50,995.22
2015,12,08,09,51,995.09
2015,12,08,09,52,995.19
2015,12,08,09,53,995.22
2015,12,08,09,54,995.09
2015,12,08,09,55,995.09
2015,12,08,09,56,995.13
2015,12,08,09,57,995.22
2015,12,08,09,58,995.12
2015,12,08,09,59,995.16
2015,12,08,10,00,995.12
2015,12,08,10,01,995.09
2015,12,08,10,02,995.06
2015,12,08,10,03,995.06
2015,12,08,10,04,995.09
2015,12,08,10,05,995.12
2015,12,08,10,06,995.16
2015,12,08,10,07,995.16
2015,12,08,10,08,995.09
2015,12,08,10,09,995.06
2015,12,08,10,10,995.07
2015,12,08,10,11,995.17
2015,12,08,10,12,995.30
2015,12,08,10,13,995.39
2015,12,08,10,14,995.65
2015,12,08,10,15,995.97
2015,12,08,10,16,995.96
2015,12,08,10,17,995.83
2015,12,08,10,18,995.70
2015,12,08,10,19,995.74
2015,12,08,10,20,995.90
2015,12,08,10,21,995.98
2015,12,08,10,22,996.08
2015,12,08,10,23,996.17
2015,12,08,10,24,996.18
2015,12,08,10,25,996.24
2015,12,08,10,26,996.21
2015,12,08,10,27,996.25
2015,12,08,10,28,996.32
2015,12,08,10,29,996.45
2015,12,08,10,30,996.49
2015,12,08,10,31,996.65
2015,12,08,10,32,996.71
2015,12,08,10,33,996.64
2015,12,08,10,34,996.58
2015,12,08,10,35,996.61
2015,12,08,10,36,996.72
2015,12,08,10,37,996.72
2015,12,08,10,38,996.81
2015,12,08,10,39,996.75
2015,12,08,10,40,996.77
2015,12,08,10,41,996.93
2015,12,08,10,42,997.09
2015,12,08,10,43,997.05
2015,12,08,10,44,997.01
2015,12,08,10,45,996.82
2015,12,08,10,46,996.72
2015,12,08,10,47,996.72
2015,12,08,10,48,996.73
2015,12,08,10,49,996.83
2015,12,08,10,50,996.92
2015,12,08,10,51,996.92
2015,12,08,10,52,996.99
2015,12,08,10,53,997.02
2015,12,08,10,54,996.99
2015,12,08,10,55,996.99
2015,12,08,10,56,997.02
2015,12,08,10,57,996.98
2015,12,08,10,58,996.93
2015,12,08,10,59,997.03
2015,12,08,11,00,997.09
2015,12,08,11,01,997.16
2015,12,08,11,02,997.21
2015,12,08,11,03,997.36
2015,12,08,11,04,997.34
2015,12,08,11,05,997.43
2015,12,08,11,06,997.49
2015,12,08,11,07,997.38
2015,12,08,11,08,997.26
2015,12,08,11,09,997.18
2015,12,08,11,10,997.12
2015,12,08,11,11,997.16
2015,12,08,11,12,997.16
2015,12,08,11,13,997.19
2015,12,08,11,14,997.22
2015,12,08,11,15,997.23
2015,12,08,11,16,997.37
2015,12,08,11,17,997.57
2015,12,08,11,18,997.64
2015,12,08,11,19,997.77
2015,12,08,11,20,997.72
2015,12,08,11,21,997.62
2015,12,08,11,22,997.50
2015,12,08,11,23,997.44
2015,12,08,11,24,997.56
2015,12,08,11,25,997.63
2015,12,08,11,26,997.70
2015,12,08,11,27,997.70
2015,12,08,11,28,997.66
2015,12,08,11,29,997.66
2015,12,08,11,30,997.63
2015,12,08,11,31,997.57
2015,12,08,11,32,997.66
2015,12,08,11,33,997.73
2015,12,08,11,34,997.70
2015,12,08,11,35,997.73
2015,12,08,11,36,997.77
2015,12,08,11,37,997.77
2015,12,08,11,38,997.80
2015,12,08,11,39,997.83
2015,12,08,11,40,997.90
2015,12,08,11,41,997.87
2015,12,08,11,42,997.80
2015,12,08,11,43,997.77
2015,12,08,11,44,997.73
2015,12,08,11,45,997.74
2015,12,08,11,46,997.83
2015,12,08,11,47,997.74
2015,12,08,11,48,997.87
2015,12,08,11,49,997.83
2015,12,08,11,50,997.83
2015,12,08,11,51,997.87
2015,12,08,11,52,997.90
2015,12,08,11,53,997.83
2015,12,08,11,54,997.83
2015,12,08,11,55,997.78
2015,12,08,11,56,997.87
2015,12,08,11,57,997.94
2015,12,08,11,58,997.97
2015,12,08,11,59,997.94
2015,12,08,12,00,997.90
2015,12,08,12,01,997.90
2015,12,08,12,02,997.83
2015,12,08,12,03,997.81
2015,12,08,12,04,998.04
2015,12,08,12,05,998.04
2015,12,08,12,06,998.07
2015,12,08,12,07,997.97
2015,12,08,12,08,997.94
2015,12,08,12,09,997.94
2015,12,08,12,10,997.80
2015,12,08,12,11,997.83
2015,12,08,12,12,997.79
2015,12,08,12,13,997.71
2015,12,08,12,14,997.87
2015,12,08,12,15,997.80
2015,12,08,12,16,997.83
2015,12,08,12,17,997.64
2015,12,08,12,18,997.73
2015,12,08,12,19,997.80
2015,12,08,12,20,997.90
2015,12,08,12,21,997.80
2015,12,08,12,22,997.87
2015,12,08,12,23,997.83
2015,12,08,12,24,997.88
2015,12,08,12,25,998.00
2015,12,08,12,26,997.95
2015,12,08,12,27,998.07
2015,12,08,12,28,998.10
2015,12,08,12,29,998.07
2015,12,08,12,30,998.04
2015,12,08,12,31,998.07
2015,12,08,12,32,998.07
2015,12,08,12,33,998.07
2015,12,08,12,34,998.04
2015,12,08,12,35,998.04
2015,12,08,12,36,998.07
2015,12,08,12,37,997.97
2015,12,08,12,38,997.90
2015,12,08,12,39,998.10
2015,12,08,12,40,998.14
2015,12,08,12,41,998.17
2015,12,08,12,42,998.14
2015,12,08,12,43,998.14
2015,12,08,12,44,998.14
2015,12,08,12,45,998.14
2015,12,08,12,46,998.14
2015,12,08,12,47,998.17
2015,12,08,12,48,998.34
2015,12,08,12,49,998.39
2015,12,08,12,50,998.54
2015,12,08,12,51,998.58
2015,12,08,12,52,998.65
2015,12,08,12,53,998.60
2015,12,08,12,54,998.51
2015,12,08,12,55,998.61
2015,12,08,12,56,998.61
2015,12,08,12,57,998.61
2015,12,08,12,58,998.61
2015,12,08,12,59,998.61
2015,12,08,13,00,998.58
2015,12,08,13,01,998.61
2015,12,08,13,02,998.65
2015,12,08,13,03,998.65
2015,12,08,13,04,998.65
2015,12,08,13,05,998.61
2015,12,08,13,06,998.68
2015,12,08,13,07,998.61
2015,12,08,13,08,998.61
2015,12,08,13,09,998.65
2015,12,08,13,10,998.61
2015,12,08,13,11,998.71
2015,12,08,13,12,998.75
2015,12,08,13,13,998.82
2015,12,08,13,14,998.88
2015,12,08,13,15,998.85
2015,12,08,13,16,998.82
2015,12,08,13,17,998.82
2015,12,08,13,18,998.83
2015,12,08,13,19,998.92
2015,12,08,13,20,998.91
2015,12,08,13,21,998.82
2015,12,08,13,22,998.85
2015,12,08,13,23,998.88
2015,12,08,13,24,998.85
2015,12,08,13,25,998.95
2015,12,08,13,26,998.99
2015,12,08,13,27,998.95
2015,12,08,13,28,998.95
2015,12,08,13,29,998.99
2015,12,08,13,30,999.09
2015,12,08,13,31,999.12
2015,12,08,13,32,999.15
2015,12,08,13,33,999.09
2015,12,08,13,34,999.26
2015,12,08,13,35,999.18
2015,12,08,13,36,999.09
2015,12,08,13,37,999.05
2015,12,08,13,38,999.09
2015,12,08,13,39,999.22
2015,12,08,13,40,999.26
2015,12,08,13,41,999.32
2015,12,08,13,42,999.32
2015,12,08,13,43,999.36
2015,12,08,13,44,999.43
2015,12,08,13,45,999.53
2015,12,08,13,46,999.43
2015,12,08,13,47,999.37
2015,12,08,13,48,999.53
2015,12,08,13,49,999.53
2015,12,08,13,50,999.53
2015,12,08,13,51,999.43
2015,12,08,13,52,999.43
2015,12,08,13,53,999.36
2015,12,08,13,54,999.39
2015,12,08,13,55,999.39
2015,12,08,13,56,999.36
2015,12,08,13,57,999.39
2015,12,08,13,58,999.46
2015,12,08,13,59,999.46
2015,12,08,14,00,999.49
2015,12,08,14,01,999.46
2015,12,08,14,02,999.46
2015,12,08,14,03,999.39
2015,12,08,14,04,999.29
2015,12,08,14,05,999.15
2015,12,08,14,06,999.11
2015,12,08,14,07,999.02
2015,12,08,14,08,998.98
2015,12,08,14,09,998.75
2015,12,08,14,10,998.58
2015,12,08,14,11,998.48
2015,12,08,14,12,998.52
2015,12,08,14,13,998.66
2015,12,08,14,14,998.85
2015,12,08,14,15,998.92
2015,12,08,14,16,998.99
2015,12,08,14,17,999.05
2015,12,08,14,18,999.15
2015,12,08,14,19,999.12
2015,12,08,14,20,999.09
2015,12,08,14,21,999.09
2015,12,08,14,22,999.15
2015,12,08,14,23,999.22
2015,12,08,14,24,999.22
2015,12,08,14,25,999.22
2015,12,08,14,26,999.19
2015,12,08,14,27,999.22
2015,12,08,14,28,999.22
2015,12,08,14,29,999.19
2015,12,08,14,30,999.15
2015,12,08,14,31,999.12
2015,12,08,14,32,999.20
2015,12,08,14,33,999.37
2015,12,08,14,34,999.56
2015,12,08,14,35,999.53
2015,12,08,14,36,999.53
2015,12,08,14,37,999.53
2015,12,08,14,38,999.56
2015,12,08,14,39,999.63
2015,12,08,14,40,999.59
2015,12,08,14,41,999.60
2015,12,08,14,42,999.70
2015,12,08,14,43,999.63
2015,12,08,14,44,999.70
2015,12,08,14,45,999.73
2015,12,08,14,46,999.56
2015,12,08,14,47,999.43
2015,12,08,14,48,999.49
2015,12,08,14,49,999.56
2015,12,08,14,50,999.63
2015,12,08,14,51,999.73
2015,12,08,14,52,999.73
2015,12,08,14,53,999.70
2015,12,08,14,54,999.66
2015,12,08,14,55,999.69
2015,12,08,14,56,999.46
2015,12,08,14,57,999.49
2015,12,08,14,58,999.43
2015,12,08,14,59,999.39
2015,12,08,15,00,999.36
2015,12,08,15,01,999.39
2015,12,08,15,02,999.46
2015,12,08,15,03,999.39
2015,12,08,15,04,999.39
2015,12,08,15,05,999.36
2015,12,08,15,06,999.39
2015,12,08,15,07,999.46
2015,12,08,15,08,999.53
2015,12,08,15,09,999.48
2015,12,08,15,10,999.32
2015,12,08,15,11,999.29
2015,12,08,15,12,999.26
2015,12,08,15,13,999.29
2015,12,08,15,14,999.36
2015,12,08,15,15,999.39
2015,12,08,15,16,999.46
2015,12,08,15,17,999.53
2015,12,08,15,18,999.53
2015,12,08,15,19,999.56
2015,12,08,15,20,999.59
2015,12,08,15,21,999.59
2015,12,08,15,22,999.64
2015,12,08,15,23,999.76
2015,12,08,15,24,999.80
2015,12,08,15,25,999.87
2015,12,08,15,26,999.80
2015,12,08,15,27,999.72
2015,12,08,15,28,999.59
2015,12,08,15,29,999.53
2015,12,08,15,30,999.49
2015,12,08,15,31,999.43
2015,12,08,15,32,999.43
2015,12,08,15,33,999.39
2015,12,08,15,34,999.47
2015,12,08,15,35,999.57
2015,12,08,15,36,999.83
2015,12,08,15,37,999.90
2015,12,08,15,38,999.90
2015,12,08,15,39,999.83
2015,12,08,15,40,999.76
2015,12,08,15,41,999.83
2015,12,08,15,42,999.83
2015,12,08,15,43,999.88
2015,12,08,15,44,999.98
2015,12,08,15,45,1000.10
2015,12,08,15,46,999.97
2015,12,08,15,47,999.87
2015,12,08,15,48,999.63
2015,12,08,15,49,999.59
2015,12,08,15,50,999.53
2015,12,08,15,51,999.59
2015,12,08,15,52,999.63
2015,12,08,15,53,999.66
2015,12,08,15,54,999.63
2015,12,08,15,55,999.56
2015,12,08,15,56,999.56
2015,12,08,15,57,999.56
2015,12,08,15,58,999.53
2015,12,08,15,59,999.46
2015,12,08,16,00,999.29
2015,12,08,16,01,999.29
2015,12,08,16,02,999.32
2015,12,08,16,03,999.29
2015,12,08,16,04,999.32
2015,12,08,16,05,999.26
2015,12,08,16,06,999.22
2015,12,08,16,07,999.19
2015,12,08,16,08,999.19
2015,12,08,16,09,999.15
2015,12,08,16,10,999.29
2015,12,08,16,11,999.30
2015,12,08,16,12,999.46
2015,12,08,16,13,999.47
2015,12,08,16,14,999.56
2015,12,08,16,15,999.53
2015,12,08,16,16,999.53
2015,12,08,16,17,999.53
2015,12,08,16,18,999.46
2015,12,08,16,19,999.53
2015,12,08,16,20,999.53
2015,12,08,16,21,999.56
2015,12,08,16,22,999.49
2015,12,08,16,23,999.53
2015,12,08,16,24,999.49
2015,12,08,16,25,999.49
2015,12,08,16,26,999.53